This demonstration page uses our WeatherBlox Daily Observations layout. Learn more.

Left ArrowRight Arrow

Hourly Observations for March 12, 2021

Temp ( °F °C ) Dew Point ( °F °C ) Humidity (%) Winds ( mph kmh ) Pressure ( in mb ) Visibility ( mi km ) Precip ( " mm )
12:53 am 00:53 Clear 50 10 45 7.2 83 83 Calm 30.32 1027 10 16 0.00 0.00
1:53 am 01:53 Clear 48 8.9 45 7.2 89 89 Calm 30.32 1027 8 13 0.00 0.00
2:53 am 02:53 Clear 47 8.3 44 6.7 90 90 Calm 30.31 1027 9 14 0.00 0.00
3:53 am 03:53 Clear 47 8.3 45 7.2 93 93 Calm 30.31 1026 9 14 0.00 0.00
4:53 am 04:53 Clear 46 7.8 43 6.1 89 89 Calm 30.32 1027 7 11 0.00 0.00
5:53 am 05:53 Clear with Mist and Fog 46 7.8 43 6.1 89 89 Calm 30.34 1027 6 10 0.00 0.00
6:53 am 06:53 Sunny 47 8.3 45 7.2 93 93 Calm 30.35 1028 7 11 0.00 0.00
7:53 am 07:53 Sunny 49 9.4 48 8.9 97 97 Calm 30.37 1029 7 11 0.00 0.00
8:53 am 08:53 Sunny 57 13.9 49 9.4 74 74 Calm 30.39 1029 7 11 0.00 0.00
9:53 am 09:53 Sunny 68 20 51 10.6 55 55 VRB 3 6 30.39 1029 10 16 0.00 0.00
10:53 am 10:53 Sunny 71 21.7 51 10.6 49 49 W 5 7 30.37 1028 10 16 0.00 0.00
11:53 am 11:53 Mostly Sunny 73 22.8 50 10 44 44 W 9 15 30.36 1028 10 16 0.00 0.00
12:53 pm 12:53 Sunny 74 23.3 50 10 43 43 WNW 8 13 30.34 1027 10 16 0.00 0.00
1:53 pm 13:53 Partly Cloudy 75 23.9 50 10 41 41 VRB 7 11 30.30 1026 10 16 0.00 0.00
2:53 pm 14:53 Mostly Sunny 75 23.9 48 8.9 39 39 Calm 30.28 1025 10 16 0.00 0.00
3:53 pm 15:53 Sunny 76 24.4 46 7.8 35 35 Calm 30.26 1025 10 16 0.00 0.00
4:53 pm 16:53 Sunny 77 25 46 7.8 33 33 WSW 7 11 30.24 1024 10 16 0.00 0.00
5:53 pm 17:53 Sunny 76 24.4 45 7.2 33 33 W 6 9 30.24 1024 10 16 0.00 0.00
6:53 pm 18:53 Clear 73 22.8 46 7.8 38 38 SW 3 6 30.25 1025 10 16 0.00 0.00
7:53 pm 19:53 Clear 66 18.9 48 8.9 52 52 Calm 30.26 1025 10 16 0.00 0.00
8:53 pm 20:53 Clear 62 16.7 48 8.9 60 60 Calm 30.27 1025 10 16 0.00 0.00
9:53 pm 21:53 Clear 58 14.4 49 9.4 72 72 Calm 30.28 1026 10 16 0.00 0.00
10:53 pm 22:53 Clear 57 13.9 49 9.4 74 74 Calm 30.28 1026 10 16 0.00 0.00
11:53 pm 23:53 Clear 57 13.9 49 9.4 74 74 Calm 30.27 1025 10 16 0.00 0.00

Powered by AerisWeather